Year,Month,Day,Hour,Minute,Value (Times are PST for temperature in C)
2016,08,19,00,00,22.00
2016,08,19,00,01,22.00
2016,08,19,00,02,22.00
2016,08,19,00,03,22.10
2016,08,19,00,04,22.30
2016,08,19,00,05,22.40
2016,08,19,00,06,22.60
2016,08,19,00,07,22.80
2016,08,19,00,08,22.90
2016,08,19,00,09,23.00
2016,08,19,00,10,23.10
2016,08,19,00,11,23.20
2016,08,19,00,12,23.30
2016,08,19,00,13,23.30
2016,08,19,00,14,23.30
2016,08,19,00,15,23.30
2016,08,19,00,16,23.30
2016,08,19,00,17,23.40
2016,08,19,00,18,23.30
2016,08,19,00,19,23.30
2016,08,19,00,20,23.30
2016,08,19,00,21,23.30
2016,08,19,00,22,23.30
2016,08,19,00,23,23.30
2016,08,19,00,24,23.30
2016,08,19,00,25,23.30
2016,08,19,00,26,23.20
2016,08,19,00,27,23.20
2016,08,19,00,28,23.10
2016,08,19,00,29,23.10
2016,08,19,00,30,23.10
2016,08,19,00,31,23.00
2016,08,19,00,32,22.90
2016,08,19,00,33,22.90
2016,08,19,00,34,22.90
2016,08,19,00,35,22.90
2016,08,19,00,36,22.90
2016,08,19,00,37,22.90
2016,08,19,00,38,22.90
2016,08,19,00,39,22.90
2016,08,19,00,40,22.90
2016,08,19,00,41,22.90
2016,08,19,00,42,22.90
2016,08,19,00,43,22.90
2016,08,19,00,44,22.90
2016,08,19,00,45,22.90
2016,08,19,00,46,22.90
2016,08,19,00,47,23.00
2016,08,19,00,48,23.10
2016,08,19,00,49,23.10
2016,08,19,00,50,23.10
2016,08,19,00,51,23.10
2016,08,19,00,52,23.20
2016,08,19,00,53,23.20
2016,08,19,00,54,23.20
2016,08,19,00,55,23.20
2016,08,19,00,56,23.20
2016,08,19,00,57,23.20
2016,08,19,00,58,23.20
2016,08,19,00,59,23.20
2016,08,19,01,00,23.30
2016,08,19,01,01,23.30
2016,08,19,01,02,23.30
2016,08,19,01,03,23.20
2016,08,19,01,04,23.20
2016,08,19,01,05,23.20
2016,08,19,01,06,23.20
2016,08,19,01,07,23.30
2016,08,19,01,08,23.30
2016,08,19,01,09,23.30
2016,08,19,01,10,23.30
2016,08,19,01,11,23.30
2016,08,19,01,12,23.30
2016,08,19,01,13,23.30
2016,08,19,01,14,23.30
2016,08,19,01,15,23.30
2016,08,19,01,16,23.30
2016,08,19,01,17,23.30
2016,08,19,01,18,23.30
2016,08,19,01,19,23.30
2016,08,19,01,20,23.30
2016,08,19,01,21,23.30
2016,08,19,01,22,23.30
2016,08,19,01,23,23.40
2016,08,19,01,24,23.40
2016,08,19,01,25,23.50
2016,08,19,01,26,23.60
2016,08,19,01,27,23.60
2016,08,19,01,28,23.60
2016,08,19,01,29,23.60
2016,08,19,01,30,23.70
2016,08,19,01,31,23.70
2016,08,19,01,32,23.70
2016,08,19,01,33,23.70
2016,08,19,01,34,23.70
2016,08,19,01,35,23.70
2016,08,19,01,36,23.70
2016,08,19,01,37,23.70
2016,08,19,01,38,23.70
2016,08,19,01,39,23.70
2016,08,19,01,40,23.70
2016,08,19,01,41,23.70
2016,08,19,01,42,23.70
2016,08,19,01,43,23.70
2016,08,19,01,44,23.70
2016,08,19,01,45,23.70
2016,08,19,01,46,23.70
2016,08,19,01,47,23.80
2016,08,19,01,48,23.80
2016,08,19,01,49,23.80
2016,08,19,01,50,23.80
2016,08,19,01,51,23.80
2016,08,19,01,52,23.80
2016,08,19,01,53,23.90
2016,08,19,01,54,23.90
2016,08,19,01,55,23.90
2016,08,19,01,56,23.90
2016,08,19,01,57,24.00
2016,08,19,01,58,24.10
2016,08,19,01,59,24.10
2016,08,19,02,00,24.10
2016,08,19,02,01,24.10
2016,08,19,02,02,24.10
2016,08,19,02,03,24.10
2016,08,19,02,04,24.10
2016,08,19,02,05,24.10
2016,08,19,02,06,24.00
2016,08,19,02,07,23.90
2016,08,19,02,08,23.90
2016,08,19,02,09,23.80
2016,08,19,02,10,23.80
2016,08,19,02,11,23.80
2016,08,19,02,12,23.80
2016,08,19,02,13,23.80
2016,08,19,02,14,23.80
2016,08,19,02,15,23.80
2016,08,19,02,16,23.80
2016,08,19,02,17,23.80
2016,08,19,02,18,23.80
2016,08,19,02,19,23.80
2016,08,19,02,20,23.80
2016,08,19,02,21,23.80
2016,08,19,02,22,23.70
2016,08,19,02,23,23.70
2016,08,19,02,24,23.70
2016,08,19,02,25,23.70
2016,08,19,02,26,23.70
2016,08,19,02,27,23.60
2016,08,19,02,28,23.60
2016,08,19,02,29,23.50
2016,08,19,02,30,23.40
2016,08,19,02,31,23.30
2016,08,19,02,32,23.30
2016,08,19,02,33,23.30
2016,08,19,02,34,23.20
2016,08,19,02,35,23.10
2016,08,19,02,36,23.10
2016,08,19,02,37,22.90
2016,08,19,02,38,22.90
2016,08,19,02,39,22.90
2016,08,19,02,40,22.90
2016,08,19,02,41,22.80
2016,08,19,02,42,22.80
2016,08,19,02,43,22.80
2016,08,19,02,44,22.80
2016,08,19,02,45,22.80
2016,08,19,02,46,22.70
2016,08,19,02,47,22.70
2016,08,19,02,48,22.60
2016,08,19,02,49,22.60
2016,08,19,02,50,22.60
2016,08,19,02,51,22.60
2016,08,19,02,52,22.60
2016,08,19,02,53,22.60
2016,08,19,02,54,22.60
2016,08,19,02,55,22.60
2016,08,19,02,56,22.60
2016,08,19,02,57,22.60
2016,08,19,02,58,22.50
2016,08,19,02,59,22.50
2016,08,19,03,00,22.50
2016,08,19,03,01,22.50
2016,08,19,03,02,22.50
2016,08,19,03,03,22.50
2016,08,19,03,04,22.60
2016,08,19,03,05,22.60
2016,08,19,03,06,22.60
2016,08,19,03,07,22.60
2016,08,19,03,08,22.70
2016,08,19,03,09,22.70
2016,08,19,03,10,22.70
2016,08,19,03,11,22.70
2016,08,19,03,12,22.70
2016,08,19,03,13,22.60
2016,08,19,03,14,22.60
2016,08,19,03,15,22.60
2016,08,19,03,16,22.60
2016,08,19,03,17,22.60
2016,08,19,03,18,22.60
2016,08,19,03,19,22.60
2016,08,19,03,20,22.70
2016,08,19,03,21,22.70
2016,08,19,03,22,22.70
2016,08,19,03,23,22.70
2016,08,19,03,24,22.70
2016,08,19,03,25,22.70
2016,08,19,03,26,22.70
2016,08,19,03,27,22.70
2016,08,19,03,28,22.70
2016,08,19,03,29,22.70
2016,08,19,03,30,22.60
2016,08,19,03,31,22.60
2016,08,19,03,32,22.60
2016,08,19,03,33,22.60
2016,08,19,03,34,22.50
2016,08,19,03,35,22.50
2016,08,19,03,36,22.40
2016,08,19,03,37,22.40
2016,08,19,03,38,22.30
2016,08,19,03,39,22.30
2016,08,19,03,40,22.20
2016,08,19,03,41,22.10
2016,08,19,03,42,22.10
2016,08,19,03,43,22.00
2016,08,19,03,44,22.00
2016,08,19,03,45,22.00
2016,08,19,03,46,22.00
2016,08,19,03,47,22.00
2016,08,19,03,48,22.10
2016,08,19,03,49,22.10
2016,08,19,03,50,22.10
2016,08,19,03,51,22.10
2016,08,19,03,52,22.10
2016,08,19,03,53,22.10
2016,08,19,03,54,22.10
2016,08,19,03,55,22.10
2016,08,19,03,56,22.10
2016,08,19,03,57,22.10
2016,08,19,03,58,22.10
2016,08,19,03,59,22.10
2016,08,19,04,00,22.10
2016,08,19,04,01,22.10
2016,08,19,04,02,22.10
2016,08,19,04,03,22.00
2016,08,19,04,04,22.00
2016,08,19,04,05,22.00
2016,08,19,04,06,21.90
2016,08,19,04,07,21.80
2016,08,19,04,08,21.80
2016,08,19,04,09,21.70
2016,08,19,04,10,21.60
2016,08,19,04,11,21.60
2016,08,19,04,12,21.50
2016,08,19,04,13,21.40
2016,08,19,04,14,21.40
2016,08,19,04,15,21.30
2016,08,19,04,16,21.30
2016,08,19,04,17,21.20
2016,08,19,04,18,21.10
2016,08,19,04,19,21.00
2016,08,19,04,20,21.00
2016,08,19,04,21,20.90
2016,08,19,04,22,20.80
2016,08,19,04,23,20.70
2016,08,19,04,24,20.60
2016,08,19,04,25,20.50
2016,08,19,04,26,20.50
2016,08,19,04,27,20.50
2016,08,19,04,28,20.40
2016,08,19,04,29,20.40
2016,08,19,04,30,20.30
2016,08,19,04,31,20.30
2016,08,19,04,32,20.30
2016,08,19,04,33,20.30
2016,08,19,04,34,20.30
2016,08,19,04,35,20.20
2016,08,19,04,36,20.20
2016,08,19,04,37,20.20
2016,08,19,04,38,20.10
2016,08,19,04,39,20.10
2016,08,19,04,40,20.00
2016,08,19,04,41,19.90
2016,08,19,04,42,19.80
2016,08,19,04,43,19.80
2016,08,19,04,44,19.70
2016,08,19,04,45,19.60
2016,08,19,04,46,19.50
2016,08,19,04,47,19.40
2016,08,19,04,48,19.40
2016,08,19,04,49,19.30
2016,08,19,04,50,19.20
2016,08,19,04,51,19.20
2016,08,19,04,52,19.20
2016,08,19,04,53,19.20
2016,08,19,04,54,19.20
2016,08,19,04,55,19.20
2016,08,19,04,56,19.20
2016,08,19,04,57,19.30
2016,08,19,04,58,19.30
2016,08,19,04,59,19.40
2016,08,19,05,00,19.40
2016,08,19,05,01,19.40
2016,08,19,05,02,19.50
2016,08,19,05,03,19.50
2016,08,19,05,04,19.40
2016,08,19,05,05,19.40
2016,08,19,05,06,19.40
2016,08,19,05,07,19.40
2016,08,19,05,08,19.40
2016,08,19,05,09,19.30
2016,08,19,05,10,19.30
2016,08,19,05,11,19.30
2016,08,19,05,12,19.30
2016,08,19,05,13,19.30
2016,08,19,05,14,19.30
2016,08,19,05,15,19.30
2016,08,19,05,16,19.30
2016,08,19,05,17,19.30
2016,08,19,05,18,19.30
2016,08,19,05,19,19.30
2016,08,19,05,20,19.30
2016,08,19,05,21,19.30
2016,08,19,05,22,19.30
2016,08,19,05,23,19.30
2016,08,19,05,24,19.20
2016,08,19,05,25,19.20
2016,08,19,05,26,19.20
2016,08,19,05,27,19.20
2016,08,19,05,28,19.10
2016,08,19,05,29,19.10
2016,08,19,05,30,19.10
2016,08,19,05,31,19.10
2016,08,19,05,32,19.10
2016,08,19,05,33,19.10
2016,08,19,05,34,19.10
2016,08,19,05,35,19.10
2016,08,19,05,36,19.10
2016,08,19,05,37,19.10
2016,08,19,05,38,19.10
2016,08,19,05,39,19.10
2016,08,19,05,40,19.10
2016,08,19,05,41,19.20
2016,08,19,05,42,19.20
2016,08,19,05,43,19.30
2016,08,19,05,44,19.30
2016,08,19,05,45,19.30
2016,08,19,05,46,19.30
2016,08,19,05,47,19.40
2016,08,19,05,48,19.40
2016,08,19,05,49,19.50
2016,08,19,05,50,19.50
2016,08,19,05,51,19.50
2016,08,19,05,52,19.60
2016,08,19,05,53,19.60
2016,08,19,05,54,19.60
2016,08,19,05,55,19.60
2016,08,19,05,56,19.70
2016,08,19,05,57,19.70
2016,08,19,05,58,19.70
2016,08,19,05,59,19.70
2016,08,19,06,00,19.70
2016,08,19,06,01,19.70
2016,08,19,06,02,19.70
2016,08,19,06,03,19.70
2016,08,19,06,04,19.70
2016,08,19,06,05,19.60
2016,08,19,06,06,19.60
2016,08,19,06,07,19.60
2016,08,19,06,08,19.60
2016,08,19,06,09,19.60
2016,08,19,06,10,19.50
2016,08,19,06,11,19.50
2016,08,19,06,12,19.50
2016,08,19,06,13,19.50
2016,08,19,06,14,19.50
2016,08,19,06,15,19.50
2016,08,19,06,16,19.50
2016,08,19,06,17,19.40
2016,08,19,06,18,19.40
2016,08,19,06,19,19.40
2016,08,19,06,20,19.40
2016,08,19,06,21,19.40
2016,08,19,06,22,19.40
2016,08,19,06,23,19.40
2016,08,19,06,24,19.40
2016,08,19,06,25,19.40
2016,08,19,06,26,19.40
2016,08,19,06,27,19.40
2016,08,19,06,28,19.40
2016,08,19,06,29,19.40
2016,08,19,06,30,19.40
2016,08,19,06,31,19.40
2016,08,19,06,32,19.40
2016,08,19,06,33,19.40
2016,08,19,06,34,19.40
2016,08,19,06,35,19.40
2016,08,19,06,36,19.40
2016,08,19,06,37,19.40
2016,08,19,06,38,19.40
2016,08,19,06,39,19.40
2016,08,19,06,40,19.50
2016,08,19,06,41,19.50
2016,08,19,06,42,19.50
2016,08,19,06,43,19.50
2016,08,19,06,44,19.60
2016,08,19,06,45,19.60
2016,08,19,06,46,19.60
2016,08,19,06,47,19.60
2016,08,19,06,48,19.70
2016,08,19,06,49,19.70
2016,08,19,06,50,19.70
2016,08,19,06,51,19.80
2016,08,19,06,52,19.80
2016,08,19,06,53,19.80
2016,08,19,06,54,19.90
2016,08,19,06,55,19.90
2016,08,19,06,56,19.90
2016,08,19,06,57,19.90
2016,08,19,06,58,20.00
2016,08,19,06,59,20.10
2016,08,19,07,00,20.10
2016,08,19,07,01,20.10
2016,08,19,07,02,20.20
2016,08,19,07,03,20.20
2016,08,19,07,04,20.20
2016,08,19,07,05,20.20
2016,08,19,07,06,20.20
2016,08,19,07,07,20.20
2016,08,19,07,08,20.20
2016,08,19,07,09,20.20
2016,08,19,07,10,20.20
2016,08,19,07,11,20.30
2016,08,19,07,12,20.30
2016,08,19,07,13,20.30
2016,08,19,07,14,20.40
2016,08,19,07,15,20.40
2016,08,19,07,16,20.50
2016,08,19,07,17,20.50
2016,08,19,07,18,20.50
2016,08,19,07,19,20.60
2016,08,19,07,20,20.60
2016,08,19,07,21,20.60
2016,08,19,07,22,20.70
2016,08,19,07,23,20.70
2016,08,19,07,24,20.70
2016,08,19,07,25,20.70
2016,08,19,07,26,20.70
2016,08,19,07,27,20.80
2016,08,19,07,28,20.80
2016,08,19,07,29,20.70
2016,08,19,07,30,20.70
2016,08,19,07,31,20.70
2016,08,19,07,32,20.70
2016,08,19,07,33,20.70
2016,08,19,07,34,20.60
2016,08,19,07,35,20.60
2016,08,19,07,36,20.60
2016,08,19,07,37,20.50
2016,08,19,07,38,20.50
2016,08,19,07,39,20.50
2016,08,19,07,40,20.40
2016,08,19,07,41,20.40
2016,08,19,07,42,20.40
2016,08,19,07,43,20.30
2016,08,19,07,44,20.30
2016,08,19,07,45,20.30
2016,08,19,07,46,20.20
2016,08,19,07,47,20.20
2016,08,19,07,48,20.20
2016,08,19,07,49,20.20
2016,08,19,07,50,20.20
2016,08,19,07,51,20.20
2016,08,19,07,52,20.20
2016,08,19,07,53,20.20
2016,08,19,07,54,20.30
2016,08,19,07,55,20.30
2016,08,19,07,56,20.30
2016,08,19,07,57,20.30
2016,08,19,07,58,20.30
2016,08,19,07,59,20.40
2016,08,19,08,00,20.40
2016,08,19,08,01,20.50
2016,08,19,08,02,20.50
2016,08,19,08,03,20.50
2016,08,19,08,04,20.60
2016,08,19,08,05,20.60
2016,08,19,08,06,20.70
2016,08,19,08,07,20.70
2016,08,19,08,08,20.70
2016,08,19,08,09,20.80
2016,08,19,08,10,20.80
2016,08,19,08,11,20.80
2016,08,19,08,12,20.80
2016,08,19,08,13,20.90
2016,08,19,08,14,20.90
2016,08,19,08,15,20.90
2016,08,19,08,16,20.90
2016,08,19,08,17,21.00
2016,08,19,08,18,21.00
2016,08,19,08,19,21.00
2016,08,19,08,20,21.00
2016,08,19,08,21,21.00
2016,08,19,08,22,21.00
2016,08,19,08,23,21.00
2016,08,19,08,24,21.00
2016,08,19,08,25,21.00
2016,08,19,08,26,21.00
2016,08,19,08,27,21.00
2016,08,19,08,28,21.00
2016,08,19,08,29,21.10
2016,08,19,08,30,21.10
2016,08,19,08,31,21.20
2016,08,19,08,32,21.20
2016,08,19,08,33,21.30
2016,08,19,08,34,21.30
2016,08,19,08,35,21.30
2016,08,19,08,36,21.30
2016,08,19,08,37,21.30
2016,08,19,08,38,21.30
2016,08,19,08,39,21.30
2016,08,19,08,40,21.30
2016,08,19,08,41,21.30
2016,08,19,08,42,21.40
2016,08,19,08,43,21.40
2016,08,19,08,44,21.50
2016,08,19,08,45,21.60
2016,08,19,08,46,21.60
2016,08,19,08,47,21.70
2016,08,19,08,48,21.70
2016,08,19,08,49,21.80
2016,08,19,08,50,21.90
2016,08,19,08,51,22.00
2016,08,19,08,52,22.00
2016,08,19,08,53,22.10
2016,08,19,08,54,22.20
2016,08,19,08,55,22.20
2016,08,19,08,56,22.30
2016,08,19,08,57,22.30
2016,08,19,08,58,22.40
2016,08,19,08,59,22.40
2016,08,19,09,00,22.50
2016,08,19,09,01,22.60
2016,08,19,09,02,22.60
2016,08,19,09,03,22.70
2016,08,19,09,04,22.70
2016,08,19,09,05,22.80
2016,08,19,09,06,22.80
2016,08,19,09,07,22.90
2016,08,19,09,08,22.90
2016,08,19,09,09,22.90
2016,08,19,09,10,22.90
2016,08,19,09,11,22.90
2016,08,19,09,12,22.90
2016,08,19,09,13,22.90
2016,08,19,09,14,22.90
2016,08,19,09,15,22.90
2016,08,19,09,16,22.90
2016,08,19,09,17,22.90
2016,08,19,09,18,22.90
2016,08,19,09,19,22.90
2016,08,19,09,20,22.90
2016,08,19,09,21,22.90
2016,08,19,09,22,22.90
2016,08,19,09,23,22.90
2016,08,19,09,24,22.80
2016,08,19,09,25,22.80
2016,08,19,09,26,22.80
2016,08,19,09,27,22.80
2016,08,19,09,28,22.80
2016,08,19,09,29,22.80
2016,08,19,09,30,22.90
2016,08,19,09,31,22.90
2016,08,19,09,32,22.90
2016,08,19,09,33,23.00
2016,08,19,09,34,23.10
2016,08,19,09,35,23.10
2016,08,19,09,36,23.20
2016,08,19,09,37,23.30
2016,08,19,09,38,23.30
2016,08,19,09,39,23.30
2016,08,19,09,40,23.30
2016,08,19,09,41,23.40
2016,08,19,09,42,23.40
2016,08,19,09,43,23.40
2016,08,19,09,44,23.50
2016,08,19,09,45,23.60
2016,08,19,09,46,23.60
2016,08,19,09,47,23.60
2016,08,19,09,48,23.70
2016,08,19,09,49,23.70
2016,08,19,09,50,23.70
2016,08,19,09,51,23.70
2016,08,19,09,52,23.80
2016,08,19,09,53,23.80
2016,08,19,09,54,23.80
2016,08,19,09,55,23.80
2016,08,19,09,56,23.80
2016,08,19,09,57,23.90
2016,08,19,09,58,23.90
2016,08,19,09,59,24.10
2016,08,19,10,00,24.10
2016,08,19,10,01,24.10
2016,08,19,10,02,24.10
2016,08,19,10,03,24.00
2016,08,19,10,04,23.90
2016,08,19,10,05,23.80
2016,08,19,10,06,23.80
2016,08,19,10,07,23.80
2016,08,19,10,08,23.70
2016,08,19,10,09,23.70
2016,08,19,10,10,23.70
2016,08,19,10,11,23.70
2016,08,19,10,12,23.80
2016,08,19,10,13,23.80
2016,08,19,10,14,23.80
2016,08,19,10,15,23.70
2016,08,19,10,16,23.70
2016,08,19,10,17,23.70
2016,08,19,10,18,23.70
2016,08,19,10,19,23.70
2016,08,19,10,20,23.70
2016,08,19,10,21,23.70
2016,08,19,10,22,23.80
2016,08,19,10,23,23.90
2016,08,19,10,24,24.00
2016,08,19,10,25,24.10
2016,08,19,10,26,24.10
2016,08,19,10,27,24.10
2016,08,19,10,28,24.20
2016,08,19,10,29,24.30
2016,08,19,10,30,24.30
2016,08,19,10,31,24.30
2016,08,19,10,32,24.30
2016,08,19,10,33,24.40
2016,08,19,10,34,24.40
2016,08,19,10,35,24.50
2016,08,19,10,36,24.50
2016,08,19,10,37,24.50
2016,08,19,10,38,24.50
2016,08,19,10,39,24.60
2016,08,19,10,40,24.60
2016,08,19,10,41,24.60
2016,08,19,10,42,24.60
2016,08,19,10,43,24.60
2016,08,19,10,44,24.70
2016,08,19,10,45,24.70
2016,08,19,10,46,24.70
2016,08,19,10,47,24.80
2016,08,19,10,48,24.90
2016,08,19,10,49,24.90
2016,08,19,10,50,25.00
2016,08,19,10,51,25.00
2016,08,19,10,52,25.10
2016,08,19,10,53,25.10
2016,08,19,10,54,25.20
2016,08,19,10,55,25.30
2016,08,19,10,56,25.30
2016,08,19,10,57,25.30
2016,08,19,10,58,25.30
2016,08,19,10,59,25.30
2016,08,19,11,00,25.30
2016,08,19,11,01,25.40
2016,08,19,11,02,25.40
2016,08,19,11,03,25.50
2016,08,19,11,04,25.60
2016,08,19,11,05,25.60
2016,08,19,11,06,25.70
2016,08,19,11,07,25.70
2016,08,19,11,08,25.80
2016,08,19,11,09,25.80
2016,08,19,11,10,25.80
2016,08,19,11,11,25.80
2016,08,19,11,12,25.80
2016,08,19,11,13,25.80
2016,08,19,11,14,25.80
2016,08,19,11,15,25.80
2016,08,19,11,16,25.80
2016,08,19,11,17,25.70
2016,08,19,11,18,25.70
2016,08,19,11,19,25.70
2016,08,19,11,20,25.70
2016,08,19,11,21,25.70
2016,08,19,11,22,25.70
2016,08,19,11,23,25.70
2016,08,19,11,24,25.70
2016,08,19,11,25,25.80
2016,08,19,11,26,25.80
2016,08,19,11,27,25.80
2016,08,19,11,28,25.80
2016,08,19,11,29,25.80
2016,08,19,11,30,25.80
2016,08,19,11,31,25.80
2016,08,19,11,32,25.70
2016,08,19,11,33,25.80
2016,08,19,11,34,25.80
2016,08,19,11,35,25.90
2016,08,19,11,36,25.90
2016,08,19,11,37,25.90
2016,08,19,11,38,26.00
2016,08,19,11,39,26.00
2016,08,19,11,40,26.00
2016,08,19,11,41,26.00
2016,08,19,11,42,26.00
2016,08,19,11,43,26.00
2016,08,19,11,44,26.00
2016,08,19,11,45,26.10
2016,08,19,11,46,26.10
2016,08,19,11,47,26.00
2016,08,19,11,48,26.00
2016,08,19,11,49,26.00
2016,08,19,11,50,26.00
2016,08,19,11,51,26.10
2016,08,19,11,52,26.10
2016,08,19,11,53,26.10
2016,08,19,11,54,26.10
2016,08,19,11,55,26.10
2016,08,19,11,56,26.10
2016,08,19,11,57,26.20
2016,08,19,11,58,26.20
2016,08,19,11,59,26.20
2016,08,19,12,00,26.30
2016,08,19,12,01,26.30
2016,08,19,12,02,26.40
2016,08,19,12,03,26.40
2016,08,19,12,04,26.50
2016,08,19,12,05,26.60
2016,08,19,12,06,26.60
2016,08,19,12,07,26.60
2016,08,19,12,08,26.70
2016,08,19,12,09,26.70
2016,08,19,12,10,26.80
2016,08,19,12,11,26.80
2016,08,19,12,12,26.80
2016,08,19,12,13,26.80
2016,08,19,12,14,26.80
2016,08,19,12,15,26.70
2016,08,19,12,16,26.80
2016,08,19,12,17,26.70
2016,08,19,12,18,26.70
2016,08,19,12,19,26.70
2016,08,19,12,20,26.70
2016,08,19,12,21,26.70
2016,08,19,12,22,26.70
2016,08,19,12,23,26.70
2016,08,19,12,24,26.70
2016,08,19,12,25,26.60
2016,08,19,12,26,26.60
2016,08,19,12,27,26.60
2016,08,19,12,28,26.60
2016,08,19,12,29,26.60
2016,08,19,12,30,26.70
2016,08,19,12,31,26.80
2016,08,19,12,32,26.80
2016,08,19,12,33,26.80
2016,08,19,12,34,26.80
2016,08,19,12,35,26.80
2016,08,19,12,36,26.80
2016,08,19,12,37,26.80
2016,08,19,12,38,26.80
2016,08,19,12,39,26.80
2016,08,19,12,40,26.80
2016,08,19,12,41,26.80
2016,08,19,12,42,26.80
2016,08,19,12,43,26.90
2016,08,19,12,44,26.90
2016,08,19,12,45,26.90
2016,08,19,12,46,26.90
2016,08,19,12,47,26.90
2016,08,19,12,48,26.90
2016,08,19,12,49,26.90
2016,08,19,12,50,26.90
2016,08,19,12,51,26.80
2016,08,19,12,52,26.90
2016,08,19,12,53,26.90
2016,08,19,12,54,26.90
2016,08,19,12,55,26.90
2016,08,19,12,56,26.90
2016,08,19,12,57,26.90
2016,08,19,12,58,26.90
2016,08,19,12,59,26.80
2016,08,19,13,00,26.90
2016,08,19,13,01,26.90
2016,08,19,13,02,27.00
2016,08,19,13,03,27.10
2016,08,19,13,04,27.10
2016,08,19,13,05,27.20
2016,08,19,13,06,27.20
2016,08,19,13,07,27.30
2016,08,19,13,08,27.30
2016,08,19,13,09,27.30
2016,08,19,13,10,27.30
2016,08,19,13,11,27.30
2016,08,19,13,12,27.30
2016,08,19,13,13,27.30
2016,08,19,13,14,27.30
2016,08,19,13,15,27.40
2016,08,19,13,16,27.40
2016,08,19,13,17,27.40
2016,08,19,13,18,27.40
2016,08,19,13,19,27.30
2016,08,19,13,20,27.30
2016,08,19,13,21,27.30
2016,08,19,13,22,27.40
2016,08,19,13,23,27.40
2016,08,19,13,24,27.50
2016,08,19,13,25,27.60
2016,08,19,13,26,27.60
2016,08,19,13,27,27.60
2016,08,19,13,28,27.60
2016,08,19,13,29,27.70
2016,08,19,13,30,27.60
2016,08,19,13,31,27.60
2016,08,19,13,32,27.60
2016,08,19,13,33,27.60
2016,08,19,13,34,27.60
2016,08,19,13,35,27.60
2016,08,19,13,36,27.70
2016,08,19,13,37,27.70
2016,08,19,13,38,27.70
2016,08,19,13,39,27.80
2016,08,19,13,40,27.90
2016,08,19,13,41,28.00
2016,08,19,13,42,28.00
2016,08,19,13,43,28.00
2016,08,19,13,44,28.10
2016,08,19,13,45,28.10
2016,08,19,13,46,28.10
2016,08,19,13,47,28.10
2016,08,19,13,48,28.10
2016,08,19,13,49,28.20
2016,08,19,13,50,28.20
2016,08,19,13,51,28.30
2016,08,19,13,52,28.30
2016,08,19,13,53,28.40
2016,08,19,13,54,28.40
2016,08,19,13,55,28.50
2016,08,19,13,56,28.60
2016,08,19,13,57,28.70
2016,08,19,13,58,28.80
2016,08,19,13,59,28.90
2016,08,19,14,00,28.90
2016,08,19,14,01,29.00
2016,08,19,14,02,29.10
2016,08,19,14,03,29.10
2016,08,19,14,04,29.10
2016,08,19,14,05,29.10
2016,08,19,14,06,29.10
2016,08,19,14,07,29.10
2016,08,19,14,08,29.10
2016,08,19,14,09,29.10
2016,08,19,14,10,29.20
2016,08,19,14,11,29.20
2016,08,19,14,12,29.20
2016,08,19,14,13,29.30
2016,08,19,14,14,29.30
2016,08,19,14,15,29.20
2016,08,19,14,16,29.20
2016,08,19,14,17,29.20
2016,08,19,14,18,29.30
2016,08,19,14,19,29.30
2016,08,19,14,20,29.40
2016,08,19,14,21,29.40
2016,08,19,14,22,29.50
2016,08,19,14,23,29.50
2016,08,19,14,24,29.50
2016,08,19,14,25,29.50
2016,08,19,14,26,29.40
2016,08,19,14,27,29.40
2016,08,19,14,28,29.50
2016,08,19,14,29,29.40
2016,08,19,14,30,29.40
2016,08,19,14,31,29.40
2016,08,19,14,32,29.50
2016,08,19,14,33,29.50
2016,08,19,14,34,29.50
2016,08,19,14,35,29.50
2016,08,19,14,36,29.50
2016,08,19,14,37,29.60
2016,08,19,14,38,29.60
2016,08,19,14,39,29.60
2016,08,19,14,40,29.60
2016,08,19,14,41,29.60
2016,08,19,14,42,29.60
2016,08,19,14,43,29.60
2016,08,19,14,44,29.60
2016,08,19,14,45,29.70
2016,08,19,14,46,29.70
2016,08,19,14,47,29.80
2016,08,19,14,48,29.80
2016,08,19,14,49,29.80
2016,08,19,14,50,29.80
2016,08,19,14,51,29.80
2016,08,19,14,52,29.70
2016,08,19,14,53,29.60
2016,08,19,14,54,29.60
2016,08,19,14,55,29.50
2016,08,19,14,56,29.50
2016,08,19,14,57,29.60
2016,08,19,14,58,29.70
2016,08,19,14,59,29.70
2016,08,19,15,00,29.80
2016,08,19,15,01,30.00
2016,08,19,15,02,30.10
2016,08,19,15,03,30.20
2016,08,19,15,04,30.20
2016,08,19,15,05,30.20
2016,08,19,15,06,30.10
2016,08,19,15,07,30.10
2016,08,19,15,08,30.00
2016,08,19,15,09,29.90
2016,08,19,15,10,29.90
2016,08,19,15,11,30.00
2016,08,19,15,12,30.10
2016,08,19,15,13,30.10
2016,08,19,15,14,30.10
2016,08,19,15,15,30.10
2016,08,19,15,16,30.10
2016,08,19,15,17,30.10
2016,08,19,15,18,30.10
2016,08,19,15,19,30.10
2016,08,19,15,20,30.10
2016,08,19,15,21,30.00
2016,08,19,15,22,29.90
2016,08,19,15,23,29.90
2016,08,19,15,24,29.90
2016,08,19,15,25,29.90
2016,08,19,15,26,30.00
2016,08,19,15,27,30.10
2016,08,19,15,28,30.10
2016,08,19,15,29,30.20
2016,08,19,15,30,30.30
2016,08,19,15,31,30.40
2016,08,19,15,32,30.40
2016,08,19,15,33,30.40
2016,08,19,15,34,30.40
2016,08,19,15,35,30.40
2016,08,19,15,36,30.40
2016,08,19,15,37,30.40
2016,08,19,15,38,30.60
2016,08,19,15,39,30.70
2016,08,19,15,40,30.80
2016,08,19,15,41,30.80
2016,08,19,15,42,30.80
2016,08,19,15,43,30.80
2016,08,19,15,44,30.80
2016,08,19,15,45,30.80
2016,08,19,15,46,30.80
2016,08,19,15,47,30.80
2016,08,19,15,48,30.90
2016,08,19,15,49,30.90
2016,08,19,15,50,30.90
2016,08,19,15,51,30.90
2016,08,19,15,52,31.00
2016,08,19,15,53,31.00
2016,08,19,15,54,30.90
2016,08,19,15,55,30.90
2016,08,19,15,56,30.90
2016,08,19,15,57,30.90
2016,08,19,15,58,30.90
2016,08,19,15,59,30.90
2016,08,19,16,00,30.90
2016,08,19,16,01,31.00
2016,08,19,16,02,31.00
2016,08,19,16,03,31.00
2016,08,19,16,04,31.00
2016,08,19,16,05,31.00
2016,08,19,16,06,31.00
2016,08,19,16,07,31.00
2016,08,19,16,08,31.00
2016,08,19,16,09,31.00
2016,08,19,16,10,31.00
2016,08,19,16,11,31.00
2016,08,19,16,12,31.00
2016,08,19,16,13,31.10
2016,08,19,16,14,31.10
2016,08,19,16,15,31.20
2016,08,19,16,16,31.20
2016,08,19,16,17,31.20
2016,08,19,16,18,31.20
2016,08,19,16,19,31.20
2016,08,19,16,20,31.20
2016,08,19,16,21,31.20
2016,08,19,16,22,31.30
2016,08,19,16,23,31.30
2016,08,19,16,24,31.20
2016,08,19,16,25,31.20
2016,08,19,16,26,31.20
2016,08,19,16,27,31.10
2016,08,19,16,28,31.10
2016,08,19,16,29,31.10
2016,08,19,16,30,31.10
2016,08,19,16,31,31.00
2016,08,19,16,32,31.00
2016,08,19,16,33,31.00
2016,08,19,16,34,31.00
2016,08,19,16,35,31.00
2016,08,19,16,36,31.00
2016,08,19,16,37,31.00
2016,08,19,16,38,31.10
2016,08,19,16,39,31.10
2016,08,19,16,40,31.10
2016,08,19,16,41,31.10
2016,08,19,16,42,31.00
2016,08,19,16,43,31.00
2016,08,19,16,44,31.00
2016,08,19,16,45,31.00
2016,08,19,16,46,31.10
2016,08,19,16,47,31.10
2016,08,19,16,48,31.10
2016,08,19,16,49,31.20
2016,08,19,16,50,31.20
2016,08,19,16,51,31.20
2016,08,19,16,52,31.10
2016,08,19,16,53,31.10
2016,08,19,16,54,31.10
2016,08,19,16,55,31.00
2016,08,19,16,56,31.00
2016,08,19,16,57,30.90
2016,08,19,16,58,30.90
2016,08,19,16,59,30.80
2016,08,19,17,00,30.80
2016,08,19,17,01,30.70
2016,08,19,17,02,30.70
2016,08,19,17,03,30.70
2016,08,19,17,04,30.60
2016,08,19,17,05,30.60
2016,08,19,17,06,30.60
2016,08,19,17,07,30.70
2016,08,19,17,08,30.70
2016,08,19,17,09,30.70
2016,08,19,17,10,30.70
2016,08,19,17,11,30.70
2016,08,19,17,12,30.80
2016,08,19,17,13,30.80
2016,08,19,17,14,30.80
2016,08,19,17,15,30.90
2016,08,19,17,16,30.90
2016,08,19,17,17,31.00
2016,08,19,17,18,31.10
2016,08,19,17,19,31.10